Location: Cluj-Napoca
(46.7712°N, 23.6236°E)
Time: 16:24:22
(UTC+02:00)

First-Move - Pass Details

Date: 28 November 2021
Orbit: 574 x 665 km, 97.6° (Epoch: 24 January)

Event Time Altitude Azimuth Distance (km) Brightness Sun altitude
Rises 05:39:32 0° 6° (N) 2,975 ? -21.0°
Reaches altitude 10° 05:41:50 10° 359° (N) 2,071 ? -20.7°
Enters shadow 05:44:14 27° 338° (NNW) 1,260 ? -20.3°
